Wetbulb
43.72 43.83 44.48 44.86 45.17 45.66 45.78 46.18 46.69 46.85 47.35 47.35 46.96 46.71 46.85 46.92 48.47 50.47 51.60 54.18 55.63 52.50 54.49 56.03 55.64 52.81 53.82 52.65 49.02 51.65 50.29 51.22 52.21 46.50 47.35 47.27 43.79 45.91 44.56 44.65 41.55 39.69 40.10 36.84 41.13 34.34 32.43 47.51 46.49 41.54 47.51 49.80 49.16 49.10
44.38 44.45 44.65 45.06 45.34 45.43 45.92 46.27 46.50 46.98 47.12 46.94 47.44 47.48 47.80 48.46 49.30 51.03 48.39 53.84 56.33 55.03 55.48 59.02 57.88 58.69 57.90 57.42 55.63 53.53 53.20 51.74 52.24 49.92 50.34 50.60 40.33 40.85 44.41 41.11 47.61 41.82 45.58 43.76 42.85 42.48 48.87 49.43 48.06 49.98 50.68 49.03 49.51 49.92
44.73 45.18 45.34 45.39 45.55 45.65 46.15 46.27 46.02 46.15 46.60 46.96 47.49 47.90 48.10 48.81 49.74 50.45 49.86 53.30 56.99 55.79 54.60 55.29 54.38 57.39 59.51 59.76 61.60 52.90 56.88 56.30 55.15 58.75 53.31 51.30 39.34 49.26 38.54 45.13 46.94 47.26 48.82 45.95 44.95 46.28 47.29 48.62 49.56 50.55 50.56 49.87 50.61 51.17
45.08 45.15 45.04 45.02 45.07 45.19 45.28 45.17 45.70 46.50 46.18 46.96 47.74 48.35 48.74 49.04 50.10 50.92 50.20 55.10 59.65 55.78 46.60 51.32 57.98 55.19 58.49 59.82 59.75 60.54 59.97 60.16 59.08 57.92 54.26 43.29 42.03 51.60 48.40 49.09 47.80 47.47 47.70 44.97 45.16 47.10 48.17 49.13 49.63 49.65 50.28 50.73 50.02 50.61
44.03 43.21 43.01 43.20 44.68 44.63 44.90 46.23 45.68 46.87 47.59 47.94 48.23 48.49 48.76 49.39 50.35 52.24 53.51 57.00 59.92 55.79 47.40 49.93 54.84 56.27 57.41 58.37 57.06 58.72 58.80 57.09 55.59 51.40 41.81 49.19 51.27 50.01 49.46 49.31 47.66 48.28 46.40 45.24 44.59 47.34 47.45 46.42 47.34 48.81 46.98 45.88 46.36 45.28
43.97 44.55 44.55 45.07 46.21 46.67 46.71 46.76 47.18 47.45 47.83 48.20 48.38 48.85 49.24 49.83 50.23 52.84 51.83 58.12 58.07 61.25 52.98 46.51 53.16 53.52 56.03 57.00 56.21 56.36 56.97 57.24 55.92 53.33 50.10 51.29 51.04 51.50 41.93 44.83 47.38 48.16 48.92 48.74 47.15 48.97 48.90 46.75 45.70 44.62 42.90 42.56 42.37 41.24
46.47 46.67 46.85 46.83 46.80 46.78 46.96 46.80 47.10 47.30 47.70 48.02 48.63 49.44 49.94 50.00 54.15 52.67 49.79 51.97 51.58 61.03 53.22 44.31 45.69 51.97 54.83 54.74 54.15 54.71 56.80 55.68 54.85 51.85 49.41 49.46 48.51 50.20 41.74 44.93 45.74 46.33 47.28 47.10 47.75 48.21 44.01 46.05 41.08 41.68 40.17 39.31 39.46 38.77
47.43 47.66 47.56 47.01 46.96 46.78 46.80 46.71 47.14 47.50 47.83 48.31 48.95 49.44 49.63 48.86 50.29 50.77 52.66 49.28 50.98 55.88 55.09 43.22 39.27 48.05 52.92 50.83 48.05 52.96 52.94 53.06 50.14 46.62 48.00 48.01 46.81 48.97 44.16 44.38 44.70 45.73 45.72 45.34 45.02 46.02 44.41 43.43 41.81 39.86 39.81 39.04 37.23 36.24
45.90 46.41 46.87 47.84 47.61 47.12 46.94 47.10 47.56 47.81 48.18 48.72 49.19 49.53 54.27 54.39 54.17 51.70 48.96 48.49 57.08 53.72 46.21 38.76 40.21 37.68 50.85 46.42 47.24 48.59 51.35 41.94 47.46 42.93 45.58 46.53 41.19 40.42 42.93 42.42 42.09 43.53 43.04 41.89 42.81 42.82 42.25 39.73 38.22 38.21 38.16 38.00 36.24 36.20
45.59 45.77 45.73 45.82 47.23 48.31 48.49 48.07 47.85 48.58 49.05 49.48 52.72 52.48 45.24 51.84 47.51 49.42 53.29 49.80 47.71 50.71 47.77 41.66 47.37 42.81 47.09 44.58 41.64 43.39 43.52 41.97 39.70 41.36 44.96 40.20 35.85 39.20 40.25 41.39 41.66 42.37 42.92 41.68 37.00 35.64 36.59 36.37 36.85 37.53 38.06 38.54 37.96 36.09
45.16 45.14 45.32 45.47 45.84 46.68 47.16 48.46 48.78 49.67 50.06 56.02 52.22 45.82 51.67 48.71 53.05 49.80 43.44 43.08 44.20 42.12 42.41 43.40 45.55 42.83 46.89 41.37 38.60 42.90 39.42 40.79 37.28 39.75 40.01 36.78 34.95 36.30 38.92 39.50 41.13 42.49 42.40 41.26 40.24 39.88 40.20 39.12 37.28 36.95 36.71 36.98 35.67 35.18
44.89 44.76 44.49 44.65 45.05 46.02 46.76 47.78 48.21 52.31 53.00 52.33 51.52 52.31 52.51 49.71 46.20 38.43 37.13 39.67 40.23 37.87 39.11 40.11 41.80 42.69 43.40 47.47 41.28 41.42 36.32 39.38 35.04 41.67 36.82 34.88 34.93 36.65 37.63 38.85 40.52 41.22 40.85 40.36 40.51 39.21 39.34 39.21 38.68 37.17 35.98 35.08 34.99 34.13
43.82 43.95 44.14 44.04 44.48 45.28 46.22 46.46 46.25 47.65 47.92 54.43 48.54 41.34 44.88 38.81 36.23 35.50 32.59 36.36 33.90 36.36 37.29 39.34 36.64 41.92 42.52 43.19 38.91 37.86 34.76 36.08 43.17 35.83 34.13 33.86 34.45 35.90 38.13 38.71 38.77 39.79 39.78 39.28 38.70 38.20 37.58 36.41 36.70 35.38 33.92 34.73 33.95 34.35
43.68 43.63 43.15 43.48 43.92 44.55 45.34 46.11 46.86 49.38 50.01 43.55 38.76 34.05 34.96 33.69 32.96 32.78 33.87 34.23 34.05 34.59 37.50 39.49 37.86 38.29 39.13 36.04 36.23 32.78 33.51 37.40 32.90 30.99 33.00 32.66 33.82 36.03 37.35 38.20 37.79 36.70 35.31 36.43 36.09 35.56 34.09 33.33 32.53 32.18 31.28 31.61 29.82 29.90
43.08 42.87 43.05 42.60 43.52 44.48 45.04 45.64 46.19 47.71 43.13 37.29 38.06 31.33 31.33 32.40 32.96 32.78 33.51 34.41 34.70 38.15 40.00 40.20 39.82 40.01 35.86 34.78 36.59 33.51 31.88 31.16 32.75 33.42 33.90 33.63 34.35 36.04 36.50 37.29 35.07 34.77 33.83 35.29 35.14 33.27 32.22 32.37 33.09 32.46 31.66 30.99 29.49 26.93
44.19 44.07 41.80 42.54 43.24 44.27 45.05 46.54 45.63 44.70 38.72 34.06 33.22 32.06 32.60 32.78 32.04 32.42 32.60 32.42 35.30 36.95 40.13 42.76 37.13 34.41 33.14 34.59 33.14 33.31 32.68 32.23 32.84 34.51 34.03 33.99 34.41 35.76 36.74 35.36 35.78 36.52 36.96 35.79 34.73 33.95 33.56 32.49 32.01 31.60 29.88 28.28 27.19 26.14
44.40 41.74 40.78 42.27 43.48 43.94 44.33 44.59 43.01 37.70 35.43 33.87 31.88 32.42 32.96 32.21 31.51 31.69 32.22 32.15 35.28 35.32 33.33 37.08 32.96 32.31 35.73 33.65 32.65 34.88 32.06 33.64 34.30 34.81 34.44 34.41 34.56 36.05 36.72 36.41 35.43 35.90 36.13 35.69 35.19 34.50 33.14 32.54 30.97 29.99 28.77 27.88 28.58 28.37
42.42 43.62 42.24 42.95 45.22 44.68 43.09 42.21 38.90 36.66 31.97 33.16 31.32 31.88 32.96 32.42 32.78 32.60 32.96 34.35 35.11 33.49 34.34 33.33 37.07 33.10 32.60 31.42 31.38 33.39 33.78 33.99 35.06 35.20 35.20 35.79 36.59 36.83 37.30 36.39 36.51 36.51 35.03 33.63 32.90 32.42 31.55 30.26 30.18 28.98 28.06 26.68 27.41 26.79
40.36 41.73 41.79 42.73 43.96 42.61 37.28 38.21 40.24 32.20 33.11 34.40 34.19 34.71 34.58 33.69 35.27 35.95 35.86 37.32 38.15 37.78 36.57 34.78 32.37 30.73 30.03 30.93 32.22 33.51 33.76 33.20 31.84 32.93 34.66 36.58 36.66 36.30 36.09 35.30 34.11 33.13 32.00 32.44 32.70 31.57 28.64 28.01 26.90 26.64 25.53 24.77 23.82 24.58
41.16 40.87 41.27 42.62 44.41 39.91 34.49 35.83 41.61 34.54 31.41 33.34 35.21 34.12 34.39 34.02 35.60 34.38 35.86 37.41 35.92 35.09 30.58 28.81 26.88 27.79 28.55 30.53 32.00 34.61 34.95 34.41 33.37 31.46 31.82 34.10 35.01 34.41 34.30 34.12 33.03 32.12 30.25 28.56 28.00 28.77 28.96 27.56 25.68 24.51 23.12 22.81 22.22 20.70
42.33 41.40 42.47 44.38 42.20 39.78 36.66 35.68 34.11 34.84 34.47 32.23 34.11 34.56 33.08 36.29 34.48 33.51 34.38 37.05 32.24 28.87 28.11 30.11 30.55 31.38 33.31 32.32 32.78 33.31 33.76 35.97 35.57 35.20 33.33 32.05 33.49 33.64 32.55 32.33 32.18 31.50 30.04 29.08 27.44 25.24 24.98 23.05 22.16 22.03 22.28 22.55 21.02 21.38
40.30 40.96 42.39 41.63 37.41 36.07 35.31 38.16 34.73 36.76 34.21 33.68 33.51 34.53 32.10 31.73 32.04 32.33 35.83 30.75 27.54 28.82 29.95 29.58 29.94 30.47 29.52 28.92 29.90 32.06 32.80 33.32 33.55 32.98 32.67 32.53 30.25 29.39 29.08 29.83 28.99 26.83 25.34 24.74 24.41 23.15 22.31 20.03 18.96 19.32 19.99 19.85 19.67 21.43
40.44 41.00 39.23 37.14 32.16 31.27 30.21 37.80 32.49 32.52 28.38 29.62 32.60 29.49 29.64 29.81 31.70 35.74 29.29 28.02 27.35 31.09 31.68 30.48 29.87 30.60 28.99 29.00 28.69 28.82 31.01 30.74 28.93 28.70 28.33 27.75 27.47 26.93 25.70 25.14 26.49 25.05 21.33 19.92 21.33 20.54 19.16 17.13 17.74 17.48 19.43 18.88 18.83 19.15
38.51 32.58 30.56 30.81 32.19 27.25 33.91 28.93 31.74 29.81 29.96 28.84 27.78 25.78 26.18 28.15 32.57 29.57 23.92 24.93 26.64 28.39 28.64 28.71 30.77 29.19 27.62 25.89 23.92 23.92 27.20 27.96 25.97 26.43 28.73 26.05 23.26 22.48 22.22 20.49 19.47 19.35 20.00 20.48 19.70 19.14 19.06 18.23 15.70 17.34 16.98 15.56 16.09 15.20
29.96 27.15 30.78 27.00 32.32 29.18 27.39 27.04 27.80 27.57 24.98 27.51 26.65 26.15 26.84 30.67 25.96 24.14 22.52 24.01 23.36 23.42 24.15 27.47 26.21 26.01 25.12 23.78 22.97 22.22 24.74 24.73 22.45 19.84 21.76 24.52 22.78 21.28 19.43 18.40 17.26 17.26 18.78 17.76 16.26 16.12 16.08 16.28 15.92 14.52 13.35 13.71 12.70 12.70
23.60 26.37 25.62 25.81 26.14 26.01 25.81 23.69 23.70 24.11 25.86 25.60 24.76 26.69 29.60 27.92 22.96 19.72 20.22 22.34 21.38 21.34 21.67 22.88 24.19 22.54 20.12 20.42 19.53 18.85 19.61 23.48 21.86 17.72 17.53 19.13 19.36 20.50 19.31 18.38 17.54 14.64 16.48 15.95 14.02 12.87 13.14 12.96 12.25 11.45 11.57 12.07 11.05 12.27
22.54 24.28 27.47 30.35 28.63 28.91 27.22 27.91 29.11 27.70 25.05 24.37 26.11 26.45 26.86 22.14 19.11 19.87 21.87 22.23 21.36 21.78 21.95 22.25 22.04 20.98 19.77 19.23 19.59 19.75 19.66 19.54 18.89 17.66 18.32 17.76 17.30 17.11 15.99 13.78 11.78 11.28 14.00 13.61 12.36 10.63 9.63 9.77 10.02 10.32 10.56 12.40 12.82 11.80
25.52 26.16 23.30 27.07 27.33 29.48 25.02 25.68 25.24 23.94 24.60 25.86 28.01 21.90 20.45 18.27 15.97 19.98 20.76 23.11 24.18 23.18 21.73 21.04 20.40 19.66 19.04 19.19 20.27 20.42 21.19 20.06 18.86 19.36 18.85 18.41 18.23 17.33 16.24 16.05 14.31 12.50 13.24 13.28 11.82 11.34 10.30 9.60 8.52 8.99 9.73 9.09 8.88 10.95
25.27 27.92 29.09 22.87 26.09 25.18 24.58 25.03 24.30 24.08 24.91 25.11 24.47 20.69 17.55 17.04 18.65 19.75 21.08 23.24 23.41 22.36 20.48 19.73 20.92 21.56 19.87 19.16 18.78 18.03 17.11 16.27 15.67 13.12 13.25 14.02 15.17 14.59 15.27 14.92 14.79 14.34 14.19 12.96 12.91 12.75 11.97 10.55 9.60 9.15 8.53 8.59 8.82 10.05
24.99 29.83 26.21 25.18 23.53 22.24 24.20 26.40 25.49 25.37 24.88 25.17 22.86 19.47 16.66 16.47 18.01 20.70 19.92 19.61 18.71 17.92 18.17 18.66 18.92 18.13 16.85 17.69 15.96 15.12 14.54 13.06 11.74 10.18 9.18 8.69 9.29 12.66 13.48 13.80 13.07 12.84 12.81 11.69 10.72 10.54 11.64 10.87 10.11 9.44 9.92 9.65 9.32 8.01
28.15 29.16 26.15 25.57 23.57 24.61 25.27 27.46 28.43 26.76 25.18 22.34 23.27 19.82 15.89 15.07 16.60 17.45 16.80 19.31 17.94 18.00 18.66 16.69 14.83 15.06 13.69 12.48 12.25 11.91 12.68 13.28 11.80 11.22 9.47 10.18 11.61 12.06 13.08 12.54 12.86 12.66 11.69 10.46 9.39 8.61 8.23 7.81 7.49 6.71 6.73 6.58 6.03 5.74
26.10 23.17 23.64 22.19 23.75 25.37 26.66 24.67 24.69 26.08 24.70 22.49 19.21 19.42 18.25 18.82 13.13 13.40 15.10 17.65 16.36 14.56 13.50 14.67 13.68 12.87 13.27 13.36 13.86 14.38 7.55 12.14 12.62 10.98 9.49 8.68 8.72 9.40 10.00 10.33 10.63 11.09 10.97 9.47 8.53 8.19 7.74 6.95 6.47 5.84 5.24 5.02 4.67 2.70
25.15 25.15 24.53 23.98 23.39 22.72 24.16 23.45 22.18 20.57 20.52 18.35 16.61 17.47 15.63 14.13 9.21 13.27 17.06 16.71 14.52 13.45 13.05 13.80 14.68 14.89 13.79 12.98 12.60 12.33 11.19 13.42 11.73 12.40 11.78 9.33 4.68 6.63 6.50 7.89 8.21 7.36 6.63 6.87 6.80 6.69 6.09 5.97 5.75 5.18 3.71 2.50 2.19 1.49
MSLP
991.36 992.34 993.25 993.98 994.76 995.43 996.24 996.97 997.63 998.38 999.15 1000.15 1000.89 1001.87 1002.20 1003.34 1004.00 1004.14 1003.52 1003.70 1003.94 1001.80 998.71 998.55 998.84 999.00 999.74 1000.92 1001.73 1002.82 1003.91 1004.54 1004.94 1005.77 1006.36 1007.05 1007.43 1007.08 1006.84 1007.03 1008.06 1008.90 1009.63 1010.32 1010.44 1010.55 1009.43 1008.08 1008.20 1008.41 1008.94 1009.08 1009.34 1009.52
991.85 992.58 993.26 993.93 994.58 995.30 995.94 996.72 997.49 998.19 998.89 999.61 999.98 1001.24 1002.03 1002.77 1003.62 1004.24 1004.11 1002.45 1003.18 1002.61 999.90 999.36 999.91 999.89 1000.20 1000.72 1001.06 1002.30 1002.35 1003.26 1004.02 1004.82 1006.09 1007.13 1007.87 1007.94 1007.74 1007.18 1006.82 1007.49 1007.83 1008.52 1008.99 1008.77 1008.48 1008.12 1008.52 1008.82 1009.28 1009.78 1010.04 1010.24
992.03 992.62 993.20 993.81 994.44 995.03 995.73 996.62 997.42 998.16 998.65 999.57 999.86 1000.56 1000.89 1002.06 1002.84 1003.49 1002.39 1002.02 1000.69 997.88 999.48 999.36 1000.41 1001.14 1001.45 1001.40 1001.21 1001.93 1002.14 1002.47 1003.23 1003.62 1005.85 1007.40 1007.99 1007.73 1007.88 1007.25 1006.93 1007.08 1007.59 1008.06 1008.36 1007.84 1007.99 1008.25 1008.84 1009.50 1010.35 1010.83 1010.98 1011.09
992.15 992.62 993.29 993.69 994.26 994.92 995.41 996.24 996.84 997.55 998.14 999.33 999.85 1000.52 1001.38 1002.27 1002.59 1002.92 1002.69 1001.00 997.84 998.42 1000.18 1001.65 1001.44 1001.85 1002.10 1001.62 1001.83 1001.64 1001.79 1002.55 1003.26 1004.49 1006.05 1007.53 1007.75 1007.16 1007.58 1007.09 1007.02 1007.48 1007.70 1008.03 1008.33 1008.43 1008.79 1009.46 1010.29 1011.20 1011.56 1011.99 1012.34 1012.48
992.26 992.43 993.02 993.48 993.74 994.56 995.13 995.41 996.06 997.03 997.78 998.72 999.61 1000.46 1000.84 1001.67 1002.29 1003.54 1003.21 1001.86 1000.33 999.06 1000.76 1002.08 1002.30 1002.58 1002.35 1002.23 1002.47 1002.40 1002.59 1003.08 1003.94 1005.34 1006.59 1007.01 1007.10 1007.64 1008.14 1007.94 1007.62 1007.64 1007.92 1008.62 1009.14 1009.77 1010.20 1011.34 1012.18 1012.52 1013.09 1013.75 1014.09 1014.36
991.77 992.33 992.65 992.88 993.01 993.70 994.11 994.74 995.51 996.60 997.49 998.15 999.37 1000.54 1001.28 1001.72 1002.43 1003.21 1002.96 1000.76 1000.07 998.52 1000.48 1002.72 1003.66 1003.39 1002.88 1002.66 1002.88 1003.03 1003.18 1003.47 1004.03 1005.32 1006.68 1007.01 1007.47 1007.68 1008.54 1008.49 1008.53 1008.88 1009.31 1009.81 1010.25 1011.01 1011.52 1012.65 1013.74 1014.77 1015.34 1015.93 1016.31 1016.66
991.20 991.49 991.81 992.30 992.97 993.71 994.45 995.17 995.90 996.71 997.79 998.98 999.97 1000.89 1001.53 1001.95 1002.52 1003.01 1002.92 1002.43 1001.16 1000.20 1001.39 1003.52 1004.33 1004.55 1004.02 1003.88 1004.26 1004.01 1003.88 1004.17 1004.74 1006.24 1007.42 1007.82 1008.23 1008.39 1009.19 1008.95 1009.62 1010.21 1010.63 1011.27 1011.67 1011.98 1012.84 1013.34 1015.24 1016.36 1017.11 1017.78 1018.05 1018.34
991.92 992.10 992.23 992.76 993.29 993.82 994.49 995.45 996.55 997.38 998.26 999.21 1000.14 1000.82 1001.46 1002.13 1002.99 1003.73 1003.20 1002.51 1002.08 1001.10 1001.75 1003.72 1004.93 1005.19 1005.04 1005.00 1005.74 1005.61 1005.31 1005.79 1006.86 1007.91 1008.52 1008.64 1009.36 1009.48 1009.81 1010.34 1010.83 1011.27 1011.83 1012.34 1012.91 1013.16 1014.01 1015.22 1016.37 1017.36 1018.00 1018.39 1018.84 1019.49
993.12 993.18 993.22 993.38 993.76 994.34 995.02 995.75 996.50 997.30 998.39 999.50 1000.45 1001.15 1001.83 1002.09 1002.61 1003.18 1003.08 1002.74 1002.21 1002.73 1003.36 1004.60 1004.81 1005.63 1005.64 1006.41 1006.86 1007.04 1006.62 1007.74 1008.53 1008.89 1009.15 1009.44 1010.55 1010.84 1010.92 1011.53 1012.07 1012.57 1012.90 1013.64 1014.34 1014.85 1015.48 1016.38 1017.36 1018.02 1018.52 1019.12 1019.74 1020.25
994.32 994.44 994.43 994.74 995.06 995.33 995.68 996.31 997.04 997.91 998.82 999.57 1000.53 1000.68 1002.15 1002.91 1002.96 1003.05 1003.01 1003.19 1003.55 1004.22 1004.86 1005.28 1005.17 1006.13 1006.34 1007.12 1007.93 1008.14 1008.30 1008.59 1009.18 1010.01 1010.09 1010.47 1011.80 1012.57 1012.90 1013.10 1013.50 1013.68 1014.03 1014.76 1015.44 1016.28 1016.84 1017.39 1017.88 1018.41 1018.97 1019.58 1020.08 1020.83
995.67 995.74 995.95 995.92 996.09 996.46 996.91 997.30 997.88 998.67 999.31 998.92 1000.13 1002.17 1003.00 1002.83 1002.91 1003.50 1004.45 1005.04 1005.93 1005.89 1006.15 1006.18 1005.90 1006.36 1007.19 1007.34 1008.43 1009.05 1009.19 1009.36 1009.66 1010.24 1010.72 1011.75 1012.41 1013.24 1013.97 1014.12 1014.30 1014.34 1014.76 1015.38 1015.83 1016.51 1017.07 1017.72 1018.40 1018.96 1019.66 1020.30 1021.08 1021.72
997.52 997.31 997.66 997.80 997.99 998.23 998.03 997.83 998.02 998.59 999.17 999.52 1000.56 1002.18 1002.51 1002.99 1004.19 1005.15 1006.46 1006.97 1007.23 1007.47 1007.58 1007.21 1007.14 1007.46 1007.95 1007.59 1008.54 1009.47 1009.79 1009.99 1010.03 1010.73 1011.40 1012.19 1013.16 1013.91 1014.42 1014.70 1014.79 1015.01 1015.46 1015.90 1016.47 1017.20 1017.98 1018.55 1019.08 1019.66 1020.44 1021.33 1021.96 1022.62
999.38 999.22 999.09 999.38 999.41 999.34 999.40 999.40 999.61 999.91 999.96 1000.24 1001.66 1003.67 1004.41 1005.92 1006.52 1007.11 1007.60 1007.91 1008.41 1008.29 1008.06 1007.83 1008.07 1008.26 1008.53 1008.65 1009.36 1009.85 1010.32 1010.53 1010.30 1011.35 1011.80 1012.97 1013.97 1014.71 1014.86 1015.19 1015.55 1015.88 1016.25 1016.77 1017.40 1018.16 1018.85 1019.63 1020.24 1020.88 1021.59 1022.18 1022.40 1022.98
1001.14 1001.03 1000.83 1000.51 1000.20 1000.64 1000.37 1000.18 1000.01 1000.23 1000.52 1002.47 1004.36 1006.28 1007.30 1008.45 1008.93 1009.17 1009.21 1009.19 1009.58 1009.22 1008.78 1008.72 1008.64 1008.83 1009.17 1009.54 1010.07 1010.45 1011.42 1011.26 1011.51 1012.03 1012.37 1013.62 1014.61 1015.15 1015.56 1015.99 1016.31 1016.84 1017.37 1017.63 1018.38 1019.28 1020.05 1020.73 1021.42 1022.05 1022.60 1023.05 1023.50 1023.96
1002.21 1002.03 1001.72 1002.02 1002.04 1001.41 1000.67 1000.64 1000.95 1001.76 1003.82 1005.55 1006.63 1008.36 1009.40 1009.99 1010.20 1010.32 1010.16 1010.12 1010.25 1009.87 1009.47 1009.06 1008.96 1009.10 1009.75 1010.19 1010.64 1011.38 1011.92 1011.78 1011.74 1012.10 1013.17 1014.22 1015.21 1015.71 1016.16 1016.53 1017.09 1017.68 1018.20 1018.62 1019.42 1020.29 1020.84 1021.31 1021.83 1022.54 1023.15 1023.69 1024.25 1024.62
1002.49 1002.36 1003.50 1003.46 1003.07 1002.68 1002.28 1002.14 1002.92 1004.43 1006.98 1008.47 1009.52 1010.12 1010.35 1010.41 1010.79 1010.85 1011.03 1011.17 1011.07 1010.47 1009.61 1009.19 1009.64 1009.98 1010.53 1010.72 1011.12 1011.26 1011.74 1011.72 1012.53 1013.27 1014.15 1014.98 1015.76 1016.34 1016.65 1017.08 1017.72 1018.18 1018.52 1019.17 1020.12 1020.80 1021.34 1021.73 1022.23 1022.97 1023.62 1024.01 1024.33 1024.70
1002.88 1004.34 1004.68 1004.04 1003.65 1003.28 1002.91 1003.69 1005.49 1007.61 1009.31 1010.20 1011.11 1011.26 1011.27 1011.56 1011.92 1012.08 1012.08 1012.01 1011.65 1011.11 1010.89 1010.48 1010.46 1010.80 1011.11 1011.26 1011.72 1012.05 1012.66 1013.17 1013.73 1014.32 1015.06 1015.65 1016.25 1016.78 1017.25 1017.67 1018.11 1018.54 1019.11 1019.86 1020.60 1021.19 1021.83 1022.46 1022.95 1023.23 1023.49 1023.98 1024.27 1024.71
1005.05 1005.30 1004.84 1004.22 1003.83 1003.70 1004.78 1006.16 1007.65 1009.09 1010.66 1011.53 1011.91 1012.28 1012.33 1012.55 1012.60 1012.67 1012.65 1012.28 1011.89 1011.76 1011.73 1011.87 1011.78 1011.83 1012.16 1012.54 1013.01 1013.64 1013.98 1014.47 1014.86 1015.22 1015.86 1016.40 1016.90 1017.38 1017.81 1018.26 1018.73 1019.13 1019.86 1020.54 1021.22 1021.85 1022.35 1022.72 1022.94 1023.41 1023.85 1024.39 1024.60 1024.80
1006.42 1005.93 1005.32 1004.88 1004.60 1005.07 1006.99 1008.49 1009.01 1010.46 1011.92 1012.37 1012.76 1012.79 1012.93 1013.29 1013.32 1013.19 1012.93 1012.64 1012.36 1012.17 1012.40 1012.71 1013.19 1013.91 1014.55 1015.00 1014.93 1014.82 1015.10 1015.58 1016.11 1016.55 1016.84 1017.16 1017.62 1018.09 1018.45 1019.02 1019.57 1020.14 1020.86 1021.32 1021.72 1022.18 1023.03 1023.47 1023.94 1024.34 1024.83 1025.08 1025.22 1025.38
1006.22 1006.07 1005.77 1005.33 1004.76 1006.37 1008.49 1009.83 1009.92 1011.03 1012.20 1013.09 1013.28 1013.36 1013.55 1013.84 1013.95 1013.81 1013.47 1013.15 1012.99 1013.28 1014.39 1015.41 1016.44 1017.00 1016.95 1016.85 1016.50 1015.93 1016.17 1016.62 1016.91 1017.30 1017.83 1018.25 1018.64 1018.96 1019.37 1019.72 1020.23 1020.92 1021.65 1022.30 1022.78 1022.99 1023.38 1023.99 1024.68 1025.24 1025.69 1025.73 1025.94 1026.18
1006.44 1006.91 1006.44 1006.03 1006.79 1008.20 1010.03 1010.70 1011.36 1012.10 1012.64 1013.17 1013.47 1013.41 1013.96 1014.05 1014.16 1014.23 1014.13 1014.06 1014.51 1016.17 1017.09 1017.85 1018.03 1018.25 1018.28 1018.10 1017.78 1017.44 1017.31 1017.22 1017.41 1017.63 1018.28 1018.96 1019.54 1019.86 1020.46 1020.96 1021.41 1021.77 1022.35 1022.93 1023.47 1024.20 1024.59 1025.18 1025.78 1026.17 1026.28 1026.35 1026.71 1026.62
1008.07 1007.70 1007.80 1008.27 1009.28 1010.55 1011.57 1012.18 1012.22 1012.37 1012.94 1013.52 1013.56 1013.72 1014.24 1014.52 1014.72 1014.98 1015.16 1015.83 1017.73 1018.85 1019.24 1019.42 1019.42 1019.37 1019.47 1019.52 1019.48 1019.15 1018.93 1018.73 1018.74 1018.82 1019.27 1019.85 1020.48 1021.10 1021.64 1022.13 1022.61 1023.16 1023.73 1024.28 1024.66 1025.22 1025.74 1026.44 1026.90 1027.01 1026.86 1026.97 1026.88 1026.66
1008.57 1008.72 1009.65 1010.67 1011.58 1012.66 1013.92 1013.16 1013.09 1013.33 1013.68 1014.09 1014.14 1014.36 1014.89 1015.26 1015.55 1015.30 1016.59 1018.52 1019.98 1020.54 1020.55 1020.59 1020.71 1020.75 1020.89 1021.12 1021.04 1020.88 1020.59 1020.46 1020.60 1020.83 1021.21 1021.63 1022.13 1022.71 1023.16 1023.68 1024.01 1024.48 1025.10 1025.72 1025.97 1026.36 1026.78 1027.21 1027.35 1027.42 1027.23 1027.28 1027.16 1027.02
1009.93 1011.29 1012.42 1013.08 1013.58 1014.43 1014.64 1014.64 1014.39 1014.50 1014.88 1014.94 1014.90 1015.34 1015.98 1016.18 1016.21 1016.65 1018.58 1020.48 1021.75 1021.88 1021.64 1021.57 1021.30 1021.44 1021.80 1022.17 1022.48 1022.73 1022.52 1022.45 1022.56 1022.63 1022.77 1023.20 1023.75 1024.42 1025.00 1025.57 1026.06 1026.39 1026.56 1026.71 1027.06 1027.25 1027.41 1027.62 1027.71 1027.63 1027.70 1027.78 1027.53 1027.48
1011.85 1014.62 1014.61 1014.91 1015.04 1015.00 1015.22 1015.50 1015.40 1015.28 1015.70 1015.77 1015.95 1016.43 1016.89 1016.92 1017.35 1018.58 1020.20 1021.84 1022.94 1023.43 1023.46 1023.01 1022.92 1022.94 1023.02 1023.50 1023.99 1024.35 1024.38 1024.16 1024.23 1024.57 1024.94 1024.94 1025.22 1025.70 1026.20 1026.74 1027.29 1027.69 1027.79 1027.78 1027.96 1028.02 1028.05 1028.15 1028.19 1028.26 1028.24 1028.04 1027.88 1027.72
1014.52 1016.27 1016.27 1016.41 1016.51 1016.20 1016.35 1016.36 1016.67 1016.87 1016.83 1016.81 1017.37 1017.69 1017.74 1017.82 1018.92 1020.77 1022.59 1023.86 1024.48 1024.92 1024.98 1024.67 1024.29 1024.39 1024.86 1025.19 1025.35 1025.78 1026.03 1025.82 1025.79 1026.06 1026.69 1026.69 1026.63 1026.55 1026.82 1027.16 1027.63 1028.38 1028.80 1028.92 1028.89 1028.82 1028.77 1028.79 1028.73 1028.62 1028.41 1028.20 1027.99 1027.79
1016.39 1016.96 1017.38 1017.52 1017.34 1017.21 1017.38 1017.62 1017.54 1017.60 1017.79 1017.95 1018.24 1018.36 1018.65 1019.39 1021.22 1023.23 1024.65 1025.48 1025.69 1026.23 1026.43 1026.36 1026.05 1025.97 1026.19 1026.54 1026.88 1027.14 1027.28 1027.18 1027.12 1027.42 1027.73 1027.91 1028.09 1028.25 1028.41 1028.62 1029.17 1029.91 1029.71 1029.61 1029.74 1029.78 1029.57 1029.31 1029.12 1028.92 1028.66 1028.30 1028.07 1028.01
1017.96 1018.28 1018.05 1018.15 1017.87 1017.83 1018.03 1018.32 1018.65 1019.13 1019.46 1019.69 1019.38 1020.18 1021.23 1022.60 1024.39 1025.60 1026.31 1026.71 1026.77 1026.95 1027.20 1027.39 1027.53 1027.60 1027.69 1027.81 1027.82 1027.82 1027.72 1027.87 1028.00 1028.03 1028.22 1028.41 1028.61 1028.97 1029.29 1029.51 1029.97 1030.16 1030.08 1030.05 1030.10 1029.88 1029.78 1029.62 1029.51 1029.21 1028.87 1028.65 1028.56 1028.38
1018.69 1018.91 1018.71 1018.83 1018.63 1019.06 1019.66 1019.84 1020.35 1021.12 1021.51 1021.15 1021.24 1022.65 1024.37 1026.07 1027.19 1027.29 1027.51 1027.53 1027.53 1027.47 1027.60 1027.81 1027.89 1028.09 1028.34 1028.60 1028.86 1029.02 1029.17 1028.98 1028.56 1028.57 1028.67 1028.83 1028.99 1029.46 1029.79 1029.87 1029.80 1029.84 1029.85 1029.91 1029.83 1029.76 1029.52 1029.49 1029.33 1029.19 1029.02 1028.82 1028.71 1028.44
1019.55 1019.37 1019.12 1019.40 1019.61 1020.31 1021.19 1021.49 1021.71 1022.43 1022.63 1022.77 1023.46 1024.88 1026.39 1027.62 1028.64 1028.83 1028.70 1028.64 1028.54 1028.63 1028.88 1028.95 1028.99 1028.97 1029.05 1028.97 1029.27 1029.74 1030.23 1030.52 1030.64 1030.60 1030.42 1030.43 1030.52 1030.44 1030.26 1030.08 1030.06 1030.08 1030.07 1029.99 1029.87 1029.68 1029.53 1029.29 1029.19 1028.86 1028.54 1028.43 1028.28 1028.30
1020.12 1019.77 1019.83 1020.14 1020.83 1021.65 1022.06 1022.27 1022.42 1022.85 1023.29 1023.89 1024.38 1025.04 1026.49 1028.13 1029.33 1029.95 1029.97 1029.65 1029.64 1029.56 1029.43 1029.59 1030.01 1030.24 1030.33 1030.47 1030.52 1030.57 1030.65 1030.99 1031.29 1031.38 1031.60 1031.42 1031.10 1030.83 1030.52 1030.39 1030.22 1030.16 1030.11 1030.05 1029.93 1029.78 1029.56 1029.31 1029.07 1028.90 1028.71 1028.56 1028.53 1028.56
1020.71 1020.91 1020.73 1020.73 1021.37 1022.25 1022.31 1022.43 1022.49 1022.58 1023.25 1024.11 1025.22 1026.06 1026.88 1027.31 1028.77 1030.39 1031.18 1030.56 1030.38 1030.48 1030.79 1030.72 1030.74 1031.05 1031.45 1031.54 1031.47 1031.38 1031.73 1031.54 1031.40 1031.64 1031.72 1031.76 1031.68 1031.54 1031.26 1030.95 1030.72 1030.38 1030.06 1029.99 1029.92 1029.73 1029.50 1029.24 1029.02 1028.89 1028.83 1028.73 1028.78 1028.95
1021.19 1021.39 1021.57 1021.59 1021.77 1022.04 1022.64 1022.74 1022.67 1023.40 1024.11 1024.94 1026.05 1026.62 1027.48 1028.27 1029.61 1030.90 1031.62 1031.83 1031.82 1031.82 1031.85 1031.84 1031.79 1031.75 1031.76 1031.79 1031.79 1031.78 1031.74 1031.52 1031.78 1031.69 1031.60 1031.75 1032.05 1031.94 1031.84 1031.38 1031.10 1030.87 1030.58 1030.26 1029.97 1029.77 1029.43 1029.14 1028.94 1028.90 1029.01 1029.14 1029.22 1029.33
Wind_Speed
20 20 20 19 19 17 16 17 16 19 22 22 22 20 20 20 20 11 13 10 6 6 13 21 14 12 10 15 6 12 7 3 3 3 3 3 2 4 2 6 8 7 6 3 2 2 6 6 5 2 5 5 8 7
18 17 15 15 17 17 16 16 18 20 21 21 21 22 22 20 18 15 8 11 11 9 4 9 13 15 9 5 7 9 6 11 6 4 1 4 2 2 2 2 6 4 5 4 8 4 5 3 5 6 6 4 5 7
15 15 14 14 15 16 18 18 19 18 21 21 22 20 17 18 19 22 13 11 7 8 6 6 9 10 10 6 6 4 3 8 6 2 4 3 4 3 4 3 4 4 5 2 3 3 5 5 4 11 11 8 8 8
13 13 11 11 11 13 15 13 17 17 26 25 21 22 22 21 22 18 10 10 8 6 6 5 3 5 6 4 5 4 5 5 7 5 3 4 4 4 3 2 3 2 7 5 5 3 4 14 14 10 7 10 10 10
8 9 9 14 17 17 20 21 21 18 20 24 24 20 19 18 20 13 10 12 7 3 5 4 7 6 2 3 5 5 8 8 4 3 3 2 3 4 2 1 1 5 1 3 1 8 4 12 10 10 11 12 12 14
22 22 22 24 25 21 20 18 19 20 20 18 20 21 20 18 15 5 5 4 6 5 5 4 2 4 5 7 9 8 6 5 3 4 1 3 3 0 3 3 6 8 7 6 4 4 9 13 17 15 14 13 14 15
14 15 15 17 18 19 20 18 17 17 20 22 22 23 21 20 9 3 4 5 10 4 4 4 4 1 5 7 5 4 3 4 4 3 2 3 3 3 3 3 10 6 5 8 5 3 9 8 10 13 14 13 14 14
21 19 17 18 18 18 18 20 23 22 21 21 20 18 17 19 12 1 3 8 8 2 4 4 1 4 2 3 3 5 2 4 6 3 1 2 3 2 2 9 9 6 10 8 10 13 14 14 14 13 11 12 13 11
23 24 24 23 22 21 22 22 23 23 24 25 25 21 8 1 3 3 5 11 2 6 2 2 5 4 3 4 2 2 2 3 2 2 2 3 2 3 6 9 9 5 5 10 10 11 11 13 12 11 12 11 10 6
26 28 28 25 22 22 22 24 26 27 29 30 19 5 3 1 2 0 1 5 7 2 4 2 1 4 1 2 2 2 2 3 3 1 3 2 3 6 5 7 6 4 10 12 12 9 11 12 12 11 10 8 9 10
29 29 29 29 26 17 13 16 18 24 23 6 4 4 1 3 1 3 4 4 2 2 3 1 4 5 3 3 3 2 3 0 3 3 4 3 3 5 6 6 5 5 11 7 10 12 11 11 8 7 9 10 8 9
25 28 27 26 24 21 19 10 5 6 3 6 10 5 2 4 4 6 2 1 1 1 1 2 3 4 2 0 4 2 3 2 2 6 3 4 4 10 9 8 9 10 14 13 14 13 13 11 8 9 9 8 7 7
28 27 26 25 23 20 17 15 13 11 3 4 7 6 3 4 4 2 4 1 2 0 0 1 3 2 2 4 3 3 4 2 4 1 3 2 7 7 9 10 11 11 11 12 13 12 12 11 10 9 8 5 4 8
19 21 25 26 23 18 17 14 15 4 7 6 5 6 3 3 3 2 2 2 0 2 2 3 2 3 2 4 2 5 1 2 3 4 3 4 10 8 10 9 11 11 5 10 11 11 10 9 9 8 8 6 6 7
17 19 19 25 20 17 17 18 18 8 6 6 5 4 3 2 1 0 1 2 3 2 1 2 3 3 3 4 3 4 3 3 4 0 3 6 10 9 10 9 11 7 5 8 10 7 7 8 8 9 7 7 7 4
6 8 14 20 16 15 10 9 9 5 5 5 6 3 2 2 3 3 4 3 4 3 3 2 3 3 3 2 3 2 4 2 3 3 4 9 10 9 8 11 10 9 6 10 9 8 7 6 6 8 7 5 4 5
11 7 17 14 13 9 15 7 5 7 5 4 4 3 2 4 4 3 3 3 4 2 3 2 4 4 2 2 3 4 3 3 5 5 6 8 10 8 10 9 7 7 9 9 9 8 7 7 5 4 4 7 4 5
7 9 15 14 10 7 5 7 5 6 7 4 4 3 3 3 1 3 2 3 3 2 2 3 2 3 3 2 3 3 3 5 5 6 7 8 8 9 8 10 9 8 10 9 8 7 5 4 4 5 6 6 4 5
8 11 17 13 7 5 5 5 4 5 5 2 2 2 3 2 4 4 3 2 2 1 2 2 4 4 4 4 4 4 5 4 5 4 4 7 8 7 7 10 10 10 8 7 6 6 6 8 6 5 5 4 4 5
3 18 21 11 9 5 6 4 3 5 4 3 2 3 3 2 2 3 4 5 6 4 6 6 5 4 4 4 4 2 6 6 5 6 5 6 7 9 8 6 6 8 7 8 7 4 5 6 6 5 5 4 5 5
8 9 12 8 5 8 6 3 4 3 3 3 1 3 3 3 4 4 5 4 6 5 4 4 3 4 6 7 6 7 6 3 3 4 7 6 5 7 7 7 6 5 6 5 6 5 6 5 5 4 4 4 4 4
5 10 4 8 6 6 5 8 2 2 3 2 2 3 3 2 3 5 2 7 5 4 4 5 7 6 8 12 10 10 7 8 9 9 11 8 6 6 6 5 6 6 7 6 6 5 5 5 4 4 4 4 4 4
5 6 6 7 6 7 4 6 5 6 4 3 2 3 3 3 4 3 5 5 4 5 5 5 7 9 9 10 11 14 13 10 8 8 8 8 8 8 8 8 7 6 6 6 5 4 4 1 4 4 4 5 5 4
6 7 7 6 7 5 1 5 3 3 3 3 2 4 4 3 3 4 5 4 6 7 8 10 6 4 7 10 9 10 9 8 9 9 7 7 8 8 8 7 7 7 5 4 4 4 3 4 4 5 5 5 5 5
8 9 5 7 4 4 4 4 5 4 4 4 3 4 3 3 3 4 4 4 7 8 8 8 8 9 7 7 7 8 12 8 7 8 9 6 6 6 6 6 7 6 6 5 5 5 5 4 4 5 6 5 7 6
8 9 6 6 4 4 4 4 4 5 3 3 4 2 2 2 4 5 4 6 6 7 7 8 8 7 8 8 7 7 8 6 6 7 7 8 8 6 5 4 4 6 6 5 5 6 6 6 6 7 6 7 7 7
7 6 5 1 1 1 3 3 0 2 5 5 3 4 2 2 5 4 4 6 4 6 6 7 7 7 7 6 6 6 6 8 7 6 5 6 7 8 7 6 6 5 5 6 6 6 7 7 7 7 7 7 6 6
5 6 5 5 4 4 3 3 4 5 4 5 5 5 5 6 5 4 5 5 3 4 5 6 7 6 7 7 6 6 4 3 4 4 5 5 6 6 6 5 3 1 2 3 3 4 5 6 7 8 9 8 7 6
5 3 2 4 4 5 6 6 4 3 5 4 5 4 4 4 4 4 4 5 6 6 6 5 4 4 5 6 6 7 7 7 7 6 6 5 3 5 6 4 4 4 4 5 6 6 7 5 6 7 8 6 6 6
4 4 3 4 4 4 4 5 4 4 5 4 4 5 5 4 5 6 6 5 5 5 5 5 5 6 6 5 5 6 6 7 7 6 5 5 6 6 5 5 5 5 5 6 7 7 8 6 7 7 6 5 5 5
2 3 2 3 4 3 3 1 4 4 3 5 8 7 6 5 4 6 7 5 5 6 5 6 7 7 6 7 7 6 4 6 5 5 5 5 5 6 6 6 5 5 5 6 6 7 8 7 7 8 8 9 8 7
3 4 3 3 4 3 2 2 2 3 3 3 3 3 4 4 4 4 6 7 6 6 7 7 6 6 6 5 5 4 1 4 5 5 8 6 7 8 8 7 6 6 7 6 7 7 8 9 7 8 8 10 9 7
2 3 2 2 1 2 3 4 1 3 3 3 3 3 5 5 5 3 3 5 5 5 5 5 4 4 4 3 5 4 4 5 8 7 6 3 2 5 6 6 7 8 10 9 8 9 10 11 9 8 8 7 8 6
Wind_Direction
161 171 180 180 181 180 186 191 190 186 182 176 188 174 183 203 225 197 223 240 268 272 173 193 196 181 170 158 182 132 139 161 141 131 143 160 110 211 206 182 159 167 157 185 116 147 267 130 126 133 55 10 13 5
167 172 173 179 182 188 192 187 173 178 180 183 193 183 185 202 196 187 247 236 239 243 78 84 61 40 33 49 131 171 157 158 161 148 136 74 108 20 44 192 178 187 182 177 173 198 141 118 46 55 44 15 3 357
170 172 178 181 188 195 184 179 184 194 188 190 196 197 205 190 192 190 213 228 265 168 105 101 71 52 43 27 28 136 217 169 159 82 124 116 149 169 143 225 116 196 83 173 65 183 165 148 80 69 39 12 350 357
178 181 169 180 186 191 198 200 199 201 189 188 184 186 187 181 193 194 229 255 290 69 93 76 104 40 343 46 59 7 123 48 96 102 107 128 135 202 192 265 132 21 144 201 207 270 15 64 54 44 23 37 24 32
176 210 220 231 225 213 229 202 198 191 178 177 175 173 185 185 176 184 223 266 290 328 116 101 103 25 69 135 142 117 127 130 122 109 98 149 93 101 43 19 157 174 171 158 140 73 17 72 59 49 61 54 47 67
206 198 220 222 205 180 169 179 170 158 158 162 161 167 173 176 152 155 235 216 315 38 103 107 77 76 104 140 147 148 157 169 158 89 116 75 48 133 129 171 88 91 74 50 70 45 78 93 79 66 73 69 66 72
122 131 137 136 137 142 147 150 147 149 154 156 155 156 159 161 161 248 340 334 330 311 94 103 113 70 97 92 37 109 99 47 97 92 68 142 117 109 148 162 122 105 100 83 51 96 79 123 101 87 91 95 95 95
87 95 100 116 137 147 149 150 150 151 147 140 137 132 117 96 81 21 333 316 309 357 97 111 203 118 289 88 94 335 66 88 31 87 78 67 61 352 125 110 104 115 111 98 75 67 100 104 98 103 114 115 104 95
47 70 77 87 96 116 132 138 137 135 133 132 128 129 128 47 180 91 254 283 202 53 80 112 141 146 108 60 54 57 62 78 40 77 117 90 144 149 105 135 118 108 117 111 94 92 98 106 115 118 115 106 99 123
51 58 62 63 83 95 109 120 129 135 136 136 139 146 102 49 341 121 122 25 20 64 23 79 114 121 86 135 86 96 6 149 133 116 86 56 89 100 91 89 119 133 135 126 119 116 126 127 131 132 122 128 78 59
45 46 51 48 46 52 82 107 122 128 152 160 88 63 75 201 142 26 69 81 235 231 28 4 130 122 352 137 128 339 117 54 137 136 173 158 194 163 157 139 136 162 149 117 122 141 139 120 106 105 93 81 71 74
49 51 45 47 43 49 58 64 76 51 35 84 106 110 46 44 45 69 56 123 167 316 351 59 65 89 61 254 101 151 98 140 145 139 133 200 110 137 145 143 132 122 130 128 118 115 120 127 106 95 96 92 92 95
51 47 40 41 38 36 46 64 69 104 160 69 59 61 26 12 45 224 185 176 154 339 23 139 91 78 99 74 72 106 120 125 111 134 209 65 128 152 149 123 115 123 120 120 115 103 94 79 75 93 91 67 126 78
47 49 44 29 20 33 38 55 43 36 51 62 59 69 50 145 73 26 350 58 62 292 66 95 67 88 130 73 105 96 36 158 155 205 206 139 152 146 131 132 134 119 80 113 113 111 113 109 98 86 85 82 63 62
52 44 41 17 14 12 13 45 50 45 50 58 40 70 82 121 65 267 302 64 358 319 275 125 63 70 55 95 63 116 133 188 222 234 105 139 143 135 141 138 111 105 85 112 112 102 103 117 116 100 77 78 83 71
64 57 20 353 0 23 17 50 35 49 54 49 43 73 347 78 29 27 16 35 355 328 306 49 92 71 67 98 134 182 183 191 99 87 114 135 138 139 143 123 137 148 142 106 115 118 102 94 112 105 101 89 125 100
50 45 338 344 343 36 33 65 55 61 66 52 48 5 13 67 48 29 8 350 309 4 49 330 63 48 135 98 93 20 35 64 106 105 116 130 138 140 119 104 103 106 114 118 125 115 105 101 131 126 95 59 33 106
43 20 358 354 352 45 53 42 54 59 64 25 58 7 41 26 40 45 11 317 6 48 15 54 360 57 27 57 79 86 84 86 72 95 116 121 119 119 120 127 139 127 95 89 102 113 113 151 126 81 62 38 11 33
44 23 7 3 11 70 65 35 37 78 58 46 32 13 48 44 32 23 354 352 8 345 90 27 37 33 42 20 13 76 87 89 96 64 78 119 123 126 115 103 103 104 120 143 145 107 88 69 67 56 45 24 13 20
89 24 355 355 26 79 72 45 37 63 58 66 28 25 54 35 351 332 2 25 31 56 42 40 30 14 359 352 345 11 105 114 114 97 78 88 103 111 107 112 107 106 97 95 74 61 124 108 71 52 45 23 16 358
26 355 348 16 49 51 63 34 63 62 105 68 9 49 58 28 30 16 20 10 51 31 58 28 48 42 30 25 13 23 32 45 136 139 135 121 109 101 102 98 102 101 100 87 108 95 66 62 49 29 20 23 22 313
6 329 52 24 61 50 61 13 51 111 66 95 48 57 53 41 42 20 351 48 55 29 29 15 27 39 40 34 29 21 33 46 54 60 70 90 111 107 105 104 101 86 77 64 66 66 68 50 41 7 353 13 321 327
336 27 45 30 68 45 30 345 48 15 53 35 1 66 45 49 11 318 83 59 60 8 32 51 52 52 59 49 45 35 33 50 57 60 65 70 72 69 65 52 51 90 91 65 55 59 63 350 59 353 337 353 326 339
39 50 39 43 39 65 66 32 23 75 44 8 35 68 41 25 317 62 70 69 39 20 21 21 11 107 76 57 49 33 28 44 52 42 60 80 77 74 75 75 68 57 49 64 53 33 38 19 356 351 5 332 327 344
63 20 12 49 19 47 57 45 17 42 50 8 53 62 42 322 58 56 58 76 49 29 11 5 48 31 51 71 58 43 24 37 57 60 30 56 99 101 96 90 80 61 33 32 26 7 6 354 349 354 337 322 334 330
70 28 38 28 33 35 22 62 43 28 3 57 57 46 306 44 62 61 60 30 49 27 18 10 15 58 56 38 44 36 20 8 80 70 44 30 27 37 57 63 109 82 31 27 5 349 340 350 339 331 323 327 321 320
58 57 55 18 329 121 100 80 14 42 30 28 30 349 309 88 76 79 95 31 42 43 34 22 28 45 54 61 61 53 44 42 57 76 82 68 58 48 42 40 38 27 343 19 2 355 335 333 331 329 319 314 333 354
52 32 46 9 49 23 72 46 31 30 39 349 312 39 32 24 58 48 42 34 47 83 72 61 54 49 48 40 37 32 43 100 127 128 112 102 90 80 57 51 96 201 308 28 353 324 334 326 330 318 326 337 333 328
52 352 353 19 50 56 31 21 56 54 349 331 356 60 78 59 23 30 30 26 29 41 45 48 65 101 101 84 55 42 33 14 23 32 29 31 57 53 23 4 357 357 354 340 334 333 330 313 305 310 303 304 298 294
37 339 36 35 42 62 60 5 70 72 43 43 105 114 95 95 46 29 36 33 39 57 55 43 44 42 26 36 69 88 66 48 32 23 6 6 351 344 331 338 358 343 342 338 328 326 319 334 328 309 312 302 309 349
347 327 71 51 62 54 34 27 123 115 82 51 38 79 108 125 111 54 19 12 47 23 46 75 63 39 41 35 21 8 50 55 32 41 14 318 324 322 335 344 332 330 319 315 319 321 318 314 315 318 315 323 326 316
37 31 0 24 86 80 30 23 2 17 112 105 99 124 172 159 87 75 5 355 52 59 37 35 36 48 35 8 3 41 153 324 350 11 348 339 331 334 330 337 327 310 313 314 308 301 308 315 311 309 309 316 336 348
90 68 47 35 91 100 72 315 91 108 69 70 66 48 44 33 64 90 102 46 35 30 24 16 9 1 6 351 356 325 311 3 2 326 337 3 321 304 309 313 328 326 320 316 319 316 309 308 310 319 321 314 307 335